[[{"header":{"parameterUnit":"m.s-1","parameterCategory":2,"la1":30.2991,"la2":30.254,"lo1":-89.0895,"lo2":-89.0444,"dy":0.0017,"dx":0.0017,"nx":28,"ny":28,"refTime":"2024-10-21T09:00:00:Z","depth":"0","parameterNumber":2,"parameterNumberName":"U-component_of_CURRENTS"},"data":[0,0,0,0,0,0,0,0,0,0,0,0,0,0,0,0,0,0,0,0,0,0,0,0,0,0,0,0,0,0,0,0,0,0,0,0,0,0,0,0,0,0,0,0,0,0,0,0,0,0,0,0,0,0,0,0,0,0,-0.4083,-0.4082,0,-0.4002,-0.4001,-0.4,-0.3956,-0.3956,-0.3956,-0.3956,-0.381,-0.3806,-0.3803,0,0,0,0,0,0,0,0,0,0,0,0,0,-0.4117,-0.4117,-0.4083,-0.4082,-0.4081,-0.4003,-0.4001,-0.4,-0.3956,-0.3956,-0.3956,-0.3956,-0.3811,-0.3807,-0.3802,0,0,0,0,0,0,0,0,0,0,0,0,0,-0.4075,-0.4117,-0.4083,-0.4051,-0.4047,-0.4003,-0.4001,-0.4,-0.3956,-0.3956,-0.3956,-0.3956,-0.3813,-0.3807,-0.3802,-0.3766,0,0,-0.3784,-0.3781,0,0,0,0,0,0,0,0,-0.4078,-0.4074,-0.4056,-0.4053,-0.4049,-0.399,-0.396,-0.3919,-0.3956,-0.3989,-0.3956,-0.3956,-0.3865,-0.3855,-0.3839,-0.3759,-0.3753,-0.3783,-0.378,-0.3777,-0.3776,0,0,0,0,0,0,0,-0.4081,-0.4076,-0.405,-0.4055,-0.4051,-0.4012,-0.4007,-0.3952,-0.3926,-0.3986,-0.3983,-0.3976,-0.3863,-0.3845,-0.3835,-0.3751,-0.3784,-0.3778,-0.3775,-0.3772,-0.3691,-0.3693,0,0,0,0,0,0,-0.4098,-0.408,-0.4052,-0.4047,-0.4065,-0.4012,-0.4006,-0.4008,-0.3928,-0.3916,-0.3976,-0.3974,-0.3855,-0.3842,-0.383,-0.3799,-0.3777,-0.3772,-0.3769,-0.369,-0.3692,-0.3693,0,0,0,0,0,0,-0.4099,-0.4096,-0.4056,-0.4062,-0.4054,-0.4012,-0.4014,-0.4006,-0.3996,-0.3921,-0.3908,-0.3975,-0.3854,-0.3838,-0.38,-0.3792,-0.3769,-0.3764,-0.3688,-0.369,-0.3692,-0.3726,0,0,0,0,0,0,-0.41,-0.4097,-0.4113,-0.4064,-0.4055,-0.4056,-0.4014,-0.4005,-0.3992,-0.3989,-0.3916,-0.3902,-0.3853,-0.381,-0.3795,-0.3784,-0.376,-0.3687,-0.3689,-0.3692,-0.3723,-0.3729,-0.3734,0,0,0,0,0,-0.4102,-0.4137,-0.4114,-0.4111,-0.4075,-0.4058,-0.405,-0.4018,-0.3992,-0.4004,-0.3951,-0.3905,-0.3815,-0.3806,-0.3788,-0.3775,-0.3685,-0.3689,-0.3691,-0.3721,-0.3728,-0.3734,0,0,0,0,0,0,-0.4167,-0.4134,-0.4109,-0.4133,-0.4104,-0.4051,-0.4051,-0.4026,-0.3992,-0.3976,-0.391,-0.3893,-0.3868,-0.3824,-0.3816,-0.3767,-0.3747,-0.3747,-0.3776,-0.3781,-0.3787,-0.3726,-0.3755,0,0,0,0,0,-0.4186,-0.4193,-0.4154,-0.4168,-0.4152,-0.4098,-0.4087,-0.4061,-0.4019,-0.4004,-0.3955,-0.3903,-0.3865,-0.3827,-0.3797,-0.3749,-0.3666,-0.3738,-0.3743,-0.3747,-0.3691,-0.354,-0.3524,-0.3703,-0.3703,-0.3703,0,0,-0.4209,-0.4193,-0.4195,-0.418,-0.4141,-0.4099,-0.4091,-0.4073,-0.4031,-0.399,-0.3933,-0.3926,-0.3866,-0.383,-0.3812,-0.3785,-0.3677,-0.3751,-0.3755,-0.3694,-0.3541,-0.3522,-0.3506,-0.3705,-0.3704,-0.3704,0,0,-0.4205,-0.4242,-0.4207,-0.419,-0.4144,-0.4125,-0.4124,-0.4076,-0.4055,-0.4023,-0.398,-0.3955,-0.3908,-0.3841,-0.3805,-0.3814,-0.3727,-0.3838,-0.3779,-0.3636,-0.3617,-0.3599,-0.3558,-0.3536,-0.3817,-0.3817,-0.3817,0,-0.4219,-0.4166,-0.42,-0.4147,-0.4113,-0.4131,-0.4061,-0.4057,-0.4009,-0.3958,-0.4017,-0.3901,-0.3896,-0.3765,-0.3807,-0.3815,-0.3753,-0.3757,-0.3634,-0.3614,-0.3595,-0.3556,-0.3531,-0.3819,-0.3818,-0.3818,-0.3818,0,-0.4131,-0.4112,-0.4098,-0.4028,-0.4027,-0.3987,-0.3975,-0.3967,-0.3972,-0.3936,-0.3866,-0.3863,-0.3775,-0.3807,-0.3821,-0.3686,-0.37,-0.3674,-0.3602,-0.3578,-0.3542,-0.3515,-0.3821,-0.3821,-0.382,-0.382,0,0,-0.4051,-0.4031,-0.4007,-0.3954,-0.3949,-0.3919,-0.3893,-0.3823,-0.3751,-0.3774,-0.3659,-0.367,-0.3672,-0.3632,-0.3637,-0.3544,-0.3452,-0.3567,-0.3559,-0.35,-0.3192,-0.3139,-0.3105,-0.339,-0.3384,-0.3379,-0.325,0,-0.3926,-0.3815,-0.384,-0.374,-0.3682,-0.3719,-0.3682,-0.3649,-0.3654,-0.3585,-0.3568,-0.3505,-0.3601,-0.3577,-0.35,-0.347,-0.3368,-0.3492,-0.3244,-0.3238,-0.3167,-0.3065,-0.2952,-0.2817,-0.3223,-0.3219,-0.3216,0,-0.3751,-0.3719,-0.36,-0.3564,-0.3533,-0.35,-0.3421,-0.3396,-0.3348,-0.3347,-0.3291,-0.3307,-0.3233,-0.3316,-0.3169,-0.3246,-0.3208,-0.3181,-0.3173,-0.3063,-0.3128,-0.2891,-0.2752,-0.2751,-0.3174,-0.3177,-0.318,0,-0.3598,-0.3522,-0.3426,-0.3411,-0.3396,-0.3342,-0.3331,-0.3297,-0.3255,-0.3191,-0.317,-0.3075,-0.3063,-0.2963,-0.3015,-0.3061,-0.2848,-0.2889,-0.278,-0.2782,-0.2597,-0.2591,-0.2379,-0.2684,-0.2684,-0.2685,-0.2685,0,-0.3422,-0.3331,-0.3348,-0.33,-0.3163,-0.3221,-0.3095,-0.3073,-0.3057,-0.2996,-0.3038,-0.2976,-0.2969,-0.2905,-0.2905,-0.278,-0.2747,-0.2713,-0.2691,-0.2624,-0.2621,-0.2542,-0.2596,-0.268,-0.2681,-0.2682,-0.2683,0,-0.3204,-0.324,-0.3117,-0.3099,-0.309,-0.2982,-0.2969,-0.291,-0.2931,-0.2862,-0.285,-0.2871,-0.2797,-0.2783,-0.2654,-0.2641,-0.2466,-0.2468,-0.2456,-0.2431,-0.2318,-0.238,-0.2111,-0.2047,-0.2291,-0.2288,-0.2286,0,-0.3057,-0.2994,-0.2935,-0.2892,-0.2871,-0.2788,-0.276,-0.2803,-0.2795,-0.2798,-0.2767,-0.2707,-0.2632,-0.2465,-0.2394,-0.2278,-0.2319,-0.2126,-0.2151,-0.2227,-0.2281,-0.2346,-0.2318,-0.1981,-0.1976,-0.1972,-0.1969,0,-0.2768,-0.276,-0.2674,-0.2623,-0.2586,-0.2537,-0.2538,-0.2527,-0.2616,-0.2562,-0.2523,-0.2453,-0.2354,-0.2184,-0.2078,-0.2012,-0.2074,-0.204,-0.2054,-0.193,-0.2037,-0.1997,-0.226,-0.1934,-0.1938,-0.194,-0.1942,-0.1944,-0.2513,-0.2397,-0.2358,-0.2282,-0.2287,-0.2308,-0.2205,-0.2259,-0.2201,-0.2076,-0.2227,-0.1993,-0.2047,-0.1856,-0.1796,-0.1694,-0.1784,-0.166,-0.1714,-0.1764,-0.1703,-0.1938,-0.1627,-0.1629,-0.163,-0.1631,-0.1632,0,-0.2184,-0.213,-0.2053,-0.2003,-0.1978,-0.2057,-0.2058,-0.1934,-0.1792,-0.1686,-0.1567,-0.1508,-0.1443,-0.1475,-0.1481,-0.1408,-0.1396,-0.1399,-0.1452,-0.1425,-0.1539,-0.1527,-0.1253,-0.1253,-0.1253,-0.1253,-0.1253,-0.1254,-0.2017,-0.1835,-0.1837,-0.1722,-0.1725,-0.1587,-0.1543,-0.1381,-0.1235,-0.0925,-0.074,-0.0711,-0.1013,-0.1371,-0.1379,-0.1312,-0.1313,-0.1259,-0.1315,-0.1429,-0.146,-0.1488,-0.1484,-0.1206,-0.1207,-0.1129,-0.1128,-0.1128]},{"header":{"parameterUnit":"m.s-1","parameterCategory":2,"la1":30.2991,"la2":30.254,"lo1":-89.0895,"lo2":-89.0444,"dy":0.0017,"dx":0.0017,"nx":28,"ny":28,"refTime":"2024-10-21T09:00:00:Z","depth":"0","parameterNumber":3,"parameterNumberName":"V-component_of_CURRENTS"},"data":[0,0,0,0,0,0,0,0,0,0,0,0,0,0,0,0,0,0,0,0,0,0,0,0,0,0,0,0,0,0,0,0,0,0,0,0,0,0,0,0,0,0,0,0,0,0,0,0,0,0,0,0,0,0,0,0,0,0,-0.0104,-0.0102,0,0.0088,0.009,0.0093,0.0186,0.0186,0.0186,0.0186,0.0442,0.0448,0.0455,0,0,0,0,0,0,0,0,0,0,0,0,0,-0.0377,-0.0372,-0.0104,-0.0102,-0.01,0.0088,0.009,0.0093,0.0186,0.0186,0.0186,0.0186,0.0439,0.0447,0.0456,0,0,0,0,0,0,0,0,0,0,0,0,0,-0.0228,-0.0371,-0.0105,-0.0032,-0.0023,0.0087,0.0091,0.0094,0.0186,0.0186,0.0186,0.0186,0.0437,0.0447,0.0457,0.0525,0,0,0.0489,0.0493,0,0,0,0,0,0,0,0,-0.0237,-0.0218,-0.0045,-0.0036,-0.0027,0.0112,0.0088,0.0241,0.0186,0.0108,0.0186,0.0186,0.0337,0.0355,0.0393,0.0537,0.0548,0.049,0.0496,0.05,0.0503,0,0,0,0,0,0,0,-0.0247,-0.0226,-0.0027,-0.0042,-0.0031,-0.0004,0.0017,0.0117,0.0223,0.0115,0.0122,0.0141,0.0342,0.0382,0.0399,0.0552,0.0489,0.0499,0.0505,0.0509,0.0736,0.0736,0,0,0,0,0,0,-0.0273,-0.0235,-0.0033,-0.0021,-0.0136,0.0001,0.0025,0.0069,0.0221,0.0243,0.0141,0.0145,0.0365,0.0387,0.0409,0.0436,0.05,0.051,0.0516,0.0736,0.0736,0.0736,0,0,0,0,0,0,-0.0279,-0.0255,-0.0041,-0.0127,-0.0098,0.0006,0.0055,0.0072,0.0111,0.024,0.0264,0.016,0.0365,0.0394,0.0482,0.0449,0.0515,0.0524,0.0736,0.0736,0.0736,0.0532,0,0,0,0,0,0,-0.0287,-0.0258,-0.0239,-0.0127,-0.0094,0.0009,0.0055,0.0076,0.0123,0.0129,0.0265,0.0288,0.0367,0.0466,0.0492,0.0465,0.0532,0.0737,0.0736,0.0736,0.0539,0.0524,0.0512,0,0,0,0,0,-0.0297,-0.0273,-0.0239,-0.0215,-0.0068,0.0008,0.0028,0.0101,0.0123,0.0135,0.0221,0.0284,0.0482,0.0474,0.0506,0.048,0.0737,0.0736,0.0736,0.0545,0.0527,0.0512,0,0,0,0,0,0,-0.0384,-0.0258,-0.0218,-0.0157,-0.0088,0.0023,0.0041,0.0093,0.0172,0.0175,0.0293,0.0323,0.0387,0.0472,0.0461,0.0547,0.0616,0.0622,0.046,0.0445,0.0432,0.0407,0.0541,0,0,0,0,0,-0.0393,-0.0342,-0.023,-0.0188,-0.0158,-0.0061,-0.0021,0.0027,0.0112,0.0147,0.0238,0.0334,0.0413,0.0456,0.055,0.0603,0.0671,0.0607,0.0594,0.0582,0.0584,0.0626,0.0615,0.0734,0.0734,0.0734,0,0,-0.0418,-0.0343,-0.0314,-0.0204,-0.0146,-0.012,-0.0038,0.0011,0.0028,0.0164,0.0212,0.0301,0.0422,0.0471,0.0506,0.0533,0.0586,0.0581,0.0569,0.0579,0.0624,0.0612,0.0601,0.0734,0.0734,0.0734,0,0,-0.0467,-0.0376,-0.0365,-0.0313,-0.0232,-0.0167,-0.016,-0.0056,-0.0015,0.005,0.0137,0.02,0.0339,0.0396,0.0448,0.0427,0.052,0.0457,0.0361,0.0399,0.0388,0.038,0.0446,0.0445,0.044,0.044,0.0439,0,-0.0516,-0.0465,-0.0357,-0.0345,-0.0317,-0.0201,-0.0206,-0.0142,-0.0028,-0.0001,0.004,0.0205,0.0298,0.0345,0.033,0.0392,0.0442,0.0398,0.0376,0.0369,0.0364,0.0434,0.0436,0.043,0.0431,0.0432,0.0433,0,-0.0559,-0.0527,-0.0522,-0.0463,-0.042,-0.04,-0.0306,-0.0264,-0.0198,-0.0133,-0.0063,0.0057,0.0151,0.0178,0.0251,0.0256,0.0314,0.0352,0.0399,0.0338,0.0418,0.0423,0.0416,0.0419,0.0422,0.0425,0,0,-0.0653,-0.0572,-0.0574,-0.0565,-0.048,-0.0445,-0.0424,-0.036,-0.0336,-0.0247,-0.0217,-0.0112,-0.0045,0.002,0.0107,0.0136,0.0138,0.0214,0.022,0.025,0.0239,0.0304,0.0318,0.0158,0.0158,0.0157,0.0306,0,-0.0732,-0.0742,-0.0673,-0.0687,-0.0684,-0.0583,-0.0561,-0.0491,-0.0409,-0.0345,-0.0248,-0.0171,-0.0106,-0.0061,-0.0032,0.0126,0.0144,0.0097,0.0322,0.0329,0.0369,0.0323,0.038,0.0519,0.0312,0.0313,0.0314,0,-0.08,-0.0796,-0.0831,-0.0779,-0.0768,-0.076,-0.0692,-0.0653,-0.0546,-0.0483,-0.0418,-0.0307,-0.0227,-0.0167,0.0002,-0.0032,0.0076,0.0178,0.0186,0.0325,0.0403,0.0553,0.0538,0.069,0.0323,0.0323,0.0322,0,-0.091,-0.0895,-0.0925,-0.0913,-0.0848,-0.0847,-0.0804,-0.0709,-0.0658,-0.0566,-0.051,-0.0409,-0.0312,-0.02,0.0019,0.0007,0.0219,0.0234,0.0386,0.0394,0.0532,0.0551,0.0669,0.0314,0.0314,0.0313,0.0313,0,-0.1005,-0.1021,-0.0979,-0.0997,-0.1008,-0.0938,-0.092,-0.0858,-0.0765,-0.0688,-0.0589,-0.0494,-0.0317,-0.0156,-0.0007,0.0226,0.0198,0.0372,0.0428,0.0465,0.0476,0.069,0.0739,0.0319,0.0318,0.0317,0.0316,0,-0.1095,-0.108,-0.1096,-0.1066,-0.1056,-0.1057,-0.0976,-0.095,-0.086,-0.0756,-0.0726,-0.0541,-0.0324,-0.0133,0.0109,0.0229,0.053,0.0501,0.0548,0.0605,0.0862,0.0897,0.1099,0.1197,0.0679,0.0681,0.0683,0,-0.1136,-0.1162,-0.1144,-0.1154,-0.1141,-0.1125,-0.1104,-0.1013,-0.096,-0.0756,-0.0705,-0.0486,-0.0282,0.0081,0.0311,0.0568,0.0666,0.0759,0.0728,0.0883,0.0965,0.0988,0.1057,0.0842,0.0845,0.0848,0.085,0,-0.1195,-0.1182,-0.1184,-0.1217,-0.1217,-0.1195,-0.115,-0.1096,-0.0949,-0.0776,-0.0522,-0.0346,-0.0051,0.0279,0.0557,0.0705,0.0878,0.0818,0.0966,0.1087,0.1135,0.1256,0.0755,0.0872,0.087,0.0868,0.0867,0.0866,-0.1203,-0.1214,-0.1219,-0.1244,-0.1257,-0.1224,-0.1121,-0.0999,-0.0795,-0.042,-0.0327,0.0085,0.0307,0.0718,0.0861,0.115,0.1086,0.1255,0.1285,0.1295,0.1382,0.0935,0.1115,0.1114,0.1113,0.1113,0.1112,0,-0.1194,-0.1207,-0.1243,-0.125,-0.1269,-0.1256,-0.1112,-0.0926,-0.057,-0.0204,0.0162,0.0662,0.0959,0.1144,0.1436,0.1613,0.164,0.1698,0.1746,0.1793,0.1406,0.1405,0.167,0.167,0.167,0.1669,0.1669,0.1669,-0.1187,-0.12,-0.1227,-0.1251,-0.1249,-0.1098,-0.0957,-0.0632,-0.0302,0.0376,0.0836,0.1126,0.1324,0.1722,0.2003,0.2029,0.2188,0.2166,0.2244,0.1973,0.1934,0.1896,0.1908,0.2275,0.2275,0.2642,0.2646,0.2648]}],[{"header":{"parameterUnit":"m.s-1","parameterCategory":2,"la1":30.2991,"la2":30.254,"lo1":-89.0895,"lo2":-89.0444,"dy":0.0017,"dx":0.0017,"nx":28,"ny":28,"refTime":"2024-10-21T09:00:00:Z","depth":"2","parameterNumber":2,"parameterNumberName":"U-component_of_CURRENTS"},"data":[0,0,0,0,0,0,0,0,0,0,0,0,0,0,0,0,0,0,0,0,0,0,0,0,0,0,0,0,0,0,0,0,0,0,0,0,0,0,0,0,0,0,0,0,0,0,0,0,0,0,0,0,0,0,0,0,0,0,-0.255,-0.2551,0,-0.2611,-0.2611,-0.2611,-0.2575,-0.2574,-0.2573,-0.2572,-0.2583,-0.2584,-0.2585,0,0,0,0,0,0,0,0,0,0,0,0,0,-0.2394,-0.2397,-0.255,-0.2552,-0.2553,-0.2611,-0.2611,-0.2611,-0.2575,-0.2574,-0.2572,-0.2571,-0.2582,-0.2584,-0.2585,0,0,0,0,0,0,0,0,0,0,0,0,0,-0.2451,-0.2397,-0.255,-0.2548,-0.2549,-0.2611,-0.2611,-0.2611,-0.2575,-0.2574,-0.2572,-0.2571,-0.2582,-0.2584,-0.2585,-0.2626,0,0,-0.2591,-0.2592,0,0,0,0,0,0,0,0,-0.2448,-0.2456,-0.2547,-0.2548,-0.255,-0.2591,-0.256,-0.2616,-0.2575,-0.2557,-0.2572,-0.257,-0.2587,-0.2589,-0.2592,-0.2627,-0.2627,-0.2591,-0.2592,-0.2593,-0.2594,0,0,0,0,0,0,0,-0.2444,-0.2453,-0.2566,-0.2549,-0.2551,-0.2542,-0.2547,-0.257,-0.2572,-0.2558,-0.2558,-0.2578,-0.2586,-0.2591,-0.2592,-0.2628,-0.2591,-0.2593,-0.2594,-0.2595,-0.2662,-0.2662,0,0,0,0,0,0,-0.2456,-0.245,-0.2564,-0.2568,-0.2503,-0.2547,-0.2552,-0.2572,-0.2573,-0.2575,-0.2579,-0.2576,-0.2588,-0.259,-0.2593,-0.2606,-0.2593,-0.2595,-0.2596,-0.2661,-0.2662,-0.2663,0,0,0,0,0,0,-0.2452,-0.2465,-0.2562,-0.2517,-0.2529,-0.2552,-0.2574,-0.2575,-0.2585,-0.2591,-0.2589,-0.259,-0.2587,-0.259,-0.2619,-0.2607,-0.2596,-0.2597,-0.266,-0.2661,-0.2662,-0.2656,0,0,0,0,0,0,-0.2447,-0.2464,-0.2482,-0.2518,-0.2533,-0.2589,-0.2576,-0.2577,-0.2603,-0.26,-0.2601,-0.2599,-0.2586,-0.2617,-0.2621,-0.261,-0.2599,-0.2659,-0.2661,-0.2662,-0.2655,-0.2657,-0.2658,0,0,0,0,0,-0.2442,-0.247,-0.2482,-0.2497,-0.2557,-0.259,-0.2595,-0.2601,-0.2605,-0.2604,-0.2617,-0.2599,-0.2627,-0.262,-0.2625,-0.2613,-0.2659,-0.266,-0.2662,-0.2655,-0.2656,-0.2658,0,0,0,0,0,0,-0.2396,-0.2472,-0.2485,-0.253,-0.2557,-0.2587,-0.2603,-0.2614,-0.2626,-0.2629,-0.2625,-0.2625,-0.2637,-0.2643,-0.2635,-0.2638,-0.2634,-0.2637,-0.2627,-0.2629,-0.263,-0.2621,-0.26,0,0,0,0,0,-0.2404,-0.2446,-0.2501,-0.253,-0.2555,-0.2584,-0.2603,-0.261,-0.2632,-0.2635,-0.2643,-0.265,-0.265,-0.2654,-0.2658,-0.2679,-0.2664,-0.2671,-0.2673,-0.2674,-0.2671,-0.2652,-0.2651,-0.2668,-0.2668,-0.2668,0,0,-0.2397,-0.244,-0.2465,-0.2524,-0.255,-0.258,-0.2588,-0.2623,-0.2632,-0.2639,-0.2657,-0.2661,-0.2659,-0.2663,-0.2669,-0.2666,-0.266,-0.2676,-0.2676,-0.2673,-0.2654,-0.2652,-0.265,-0.2669,-0.2669,-0.2668,0,0,-0.2394,-0.2442,-0.2477,-0.2507,-0.2562,-0.2584,-0.2599,-0.2644,-0.2646,-0.2679,-0.2672,-0.2676,-0.2697,-0.2677,-0.2672,-0.2692,-0.2668,-0.2695,-0.2692,-0.2674,-0.2672,-0.267,-0.2639,-0.2635,-0.2694,-0.2694,-0.2694,0,-0.239,-0.2431,-0.2485,-0.2519,-0.2546,-0.2588,-0.2615,-0.263,-0.2671,-0.268,-0.2681,-0.27,-0.2693,-0.2684,-0.2679,-0.269,-0.2679,-0.2682,-0.2673,-0.2671,-0.2669,-0.2638,-0.2633,-0.2694,-0.2694,-0.2694,-0.2694,0,-0.2404,-0.2442,-0.2463,-0.2523,-0.2554,-0.2585,-0.2627,-0.2651,-0.2673,-0.2686,-0.2697,-0.2695,-0.2699,-0.2693,-0.269,-0.2673,-0.2669,-0.2675,-0.2663,-0.2667,-0.2634,-0.2629,-0.2694,-0.2694,-0.2694,-0.2694,0,0,-0.2381,-0.2466,-0.2466,-0.2495,-0.2562,-0.2587,-0.2617,-0.2652,-0.2669,-0.2691,-0.2697,-0.2689,-0.2696,-0.2691,-0.2685,-0.2668,-0.2633,-0.2667,-0.2667,-0.2626,-0.2587,-0.2499,-0.2484,-0.2642,-0.2641,-0.2641,-0.2566,0,-0.2375,-0.243,-0.2472,-0.251,-0.2548,-0.2597,-0.2617,-0.2651,-0.2676,-0.2692,-0.2688,-0.2692,-0.2691,-0.2691,-0.2674,-0.2651,-0.2621,-0.2652,-0.26,-0.2598,-0.251,-0.2476,-0.2297,-0.2209,-0.2561,-0.256,-0.2559,0,-0.2361,-0.2407,-0.2448,-0.2516,-0.2537,-0.256,-0.2609,-0.2635,-0.2667,-0.2684,-0.2695,-0.2701,-0.2682,-0.2679,-0.2631,-0.2655,-0.2617,-0.2594,-0.259,-0.2506,-0.25,-0.2266,-0.2186,-0.255,-0.2551,-0.2551,-0.2552,0,-0.2301,-0.2379,-0.2409,-0.2434,-0.252,-0.254,-0.258,-0.2627,-0.2646,-0.2677,-0.2689,-0.2686,-0.2673,-0.2643,-0.2598,-0.2617,-0.2535,-0.2554,-0.2433,-0.2427,-0.2261,-0.224,-0.2501,-0.2501,-0.2501,-0.2502,-0.2502,0,-0.2272,-0.2294,-0.2385,-0.2402,-0.2436,-0.2508,-0.2535,-0.2578,-0.2622,-0.2625,-0.2675,-0.266,-0.2664,-0.2626,-0.259,-0.2483,-0.2524,-0.2413,-0.2395,-0.2254,-0.2234,-0.2528,-0.2532,-0.2499,-0.2499,-0.25,-0.25,0,-0.2195,-0.2255,-0.2296,-0.2385,-0.2409,-0.2431,-0.2509,-0.2521,-0.2585,-0.2587,-0.2594,-0.263,-0.2573,-0.2558,-0.2493,-0.2449,-0.2374,-0.2323,-0.2151,-0.2112,-0.2281,-0.2286,-0.2181,-0.2177,-0.2174,-0.2171,-0.2169,0,-0.2155,-0.217,-0.226,-0.2269,-0.2307,-0.2356,-0.2376,-0.2476,-0.2489,-0.2544,-0.2523,-0.2508,-0.2435,-0.233,-0.2251,-0.2151,-0.2252,-0.1952,-0.1948,-0.2252,-0.2245,-0.2256,-0.2265,-0.1725,-0.1719,-0.1714,-0.171,0,-0.2069,-0.2103,-0.2134,-0.2163,-0.2188,-0.2226,-0.227,-0.2282,-0.2368,-0.2378,-0.2343,-0.2295,-0.2199,-0.2011,-0.192,-0.1852,-0.196,-0.1852,-0.2192,-0.1842,-0.1817,-0.1813,-0.1837,-0.1668,-0.1673,-0.1676,-0.1678,-0.168,-0.1977,-0.1975,-0.2004,-0.2018,-0.2051,-0.2053,-0.2015,-0.2072,-0.2072,-0.2038,-0.2103,-0.1972,-0.1923,-0.167,-0.1571,-0.1517,-0.1656,-0.1598,-0.1614,-0.1635,-0.1603,-0.1575,-0.1374,-0.1376,-0.1379,-0.138,-0.1382,0,-0.1832,-0.1842,-0.1848,-0.1847,-0.1811,-0.189,-0.1892,-0.1821,-0.1752,-0.1781,-0.1724,-0.1503,-0.1366,-0.1339,-0.1173,-0.1141,-0.1151,-0.1109,-0.1123,-0.1164,-0.12,-0.115,-0.0799,-0.0797,-0.0796,-0.0794,0,0,-0.1748,-0.1701,-0.1709,-0.1596,-0.1589,-0.1479,-0.1439,-0.1384,-0.1361,-0.1274,-0.1222,-0.1291,-0.1283,-0.1043,-0.098,-0.0861,-0.1009,-0.0818,-0.1281,-0.1337,-0.1372,-0.1471,-0.1436,0,0,0,0,0]},{"header":{"parameterUnit":"m.s-1","parameterCategory":2,"la1":30.2991,"la2":30.254,"lo1":-89.0895,"lo2":-89.0444,"dy":0.0017,"dx":0.0017,"nx":28,"ny":28,"refTime":"2024-10-21T09:00:00:Z","depth":"2","parameterNumber":3,"parameterNumberName":"V-component_of_CURRENTS"},"data":[0,0,0,0,0,0,0,0,0,0,0,0,0,0,0,0,0,0,0,0,0,0,0,0,0,0,0,0,0,0,0,0,0,0,0,0,0,0,0,0,0,0,0,0,0,0,0,0,0,0,0,0,0,0,0,0,0,0,-0.0388,-0.0387,0,-0.03,-0.0299,-0.0299,-0.0241,-0.0241,-0.024,-0.024,-0.011,-0.0107,-0.0104,0,0,0,0,0,0,0,0,0,0,0,0,0,-0.0468,-0.0467,-0.0388,-0.0387,-0.0386,-0.03,-0.0299,-0.0298,-0.0241,-0.0241,-0.024,-0.024,-0.0111,-0.0107,-0.0104,0,0,0,0,0,0,0,0,0,0,0,0,0,-0.0414,-0.0467,-0.0388,-0.0346,-0.0341,-0.0301,-0.0299,-0.0298,-0.0242,-0.0241,-0.024,-0.0239,-0.0112,-0.0108,-0.0103,-0.009,0,0,-0.0089,-0.0087,0,0,0,0,0,0,0,0,-0.0417,-0.0411,-0.0354,-0.0349,-0.0344,-0.028,-0.028,-0.0226,-0.0242,-0.0281,-0.024,-0.0239,-0.0162,-0.0154,-0.0141,-0.0083,-0.0078,-0.0089,-0.0086,-0.0084,-0.0083,0,0,0,0,0,0,0,-0.0421,-0.0414,-0.0355,-0.0352,-0.0346,-0.0318,-0.031,-0.0269,-0.0227,-0.0277,-0.0273,-0.0261,-0.016,-0.0146,-0.0138,-0.0076,-0.0089,-0.0085,-0.0082,-0.008,0.0029,0.0029,0,0,0,0,0,0,-0.0432,-0.0418,-0.0357,-0.0352,-0.0378,-0.0318,-0.0309,-0.0302,-0.0228,-0.0216,-0.0262,-0.0259,-0.0154,-0.0143,-0.0133,-0.0092,-0.0084,-0.008,-0.0077,0.0029,0.0029,0.003,0,0,0,0,0,0,-0.0434,-0.0427,-0.0361,-0.0381,-0.0371,-0.0317,-0.031,-0.0301,-0.0283,-0.0217,-0.0204,-0.0254,-0.0153,-0.0139,-0.0091,-0.0087,-0.0078,-0.0074,0.0029,0.0029,0.0029,-0.0023,0,0,0,0,0,0,-0.0437,-0.0429,-0.0432,-0.0383,-0.037,-0.0341,-0.031,-0.0299,-0.0277,-0.0272,-0.0205,-0.0193,-0.0151,-0.0098,-0.0087,-0.0081,-0.007,0.0029,0.0029,0.0029,-0.0022,-0.0025,-0.0027,0,0,0,0,0,-0.044,-0.0448,-0.0433,-0.0426,-0.0376,-0.0341,-0.0333,-0.0292,-0.0277,-0.0274,-0.0224,-0.0195,-0.0088,-0.0094,-0.0081,-0.0074,0.0028,0.0029,0.0029,-0.002,-0.0024,-0.0027,0,0,0,0,0,0,-0.049,-0.0441,-0.0424,-0.0419,-0.0384,-0.0331,-0.0325,-0.0298,-0.0257,-0.0251,-0.019,-0.0174,-0.0132,-0.0096,-0.0105,-0.0041,-0.0025,-0.0022,-0.0068,-0.0071,-0.0074,-0.0077,-0.0067,0,0,0,0,0,-0.0502,-0.0495,-0.0444,-0.0443,-0.0426,-0.0378,-0.036,-0.0332,-0.0287,-0.0269,-0.022,-0.0168,-0.0121,-0.0092,-0.0049,-0.0012,0.003,0.0001,-0.0002,-0.0004,0.0002,0.0065,0.0068,0.0031,0.0031,0.0031,0,0,-0.0521,-0.0496,-0.0491,-0.0453,-0.0424,-0.0402,-0.0366,-0.0343,-0.0321,-0.0261,-0.0222,-0.0178,-0.0115,-0.0074,-0.0052,-0.0041,0.0027,-0.0004,-0.0007,0.0002,0.0066,0.007,0.0073,0.0031,0.0031,0.0031,0,0,-0.0553,-0.0534,-0.0532,-0.0506,-0.0464,-0.0429,-0.0425,-0.037,-0.0343,-0.0303,-0.0252,-0.0203,-0.0138,-0.0085,-0.0051,-0.0042,0.0006,-0.0035,-0.0045,0.0015,0.0019,0.0023,0.0071,0.008,-0.0032,-0.0032,-0.0032,0,-0.058,-0.0567,-0.0528,-0.0517,-0.0498,-0.0444,-0.0434,-0.0398,-0.0336,-0.0309,-0.0298,-0.0189,-0.014,-0.0071,-0.0068,-0.0047,-0.0012,-0.004,0.0011,0.0016,0.0021,0.007,0.008,-0.0034,-0.0034,-0.0034,-0.0034,0,-0.0596,-0.0589,-0.0589,-0.0553,-0.053,-0.0516,-0.0458,-0.0429,-0.0393,-0.035,-0.0285,-0.0216,-0.0148,-0.0127,-0.0093,-0.0034,-0.002,-0.0005,0.0017,0.0021,0.0073,0.0084,-0.0038,-0.0037,-0.0036,-0.0036,0,0,-0.065,-0.0608,-0.0609,-0.0601,-0.0548,-0.0532,-0.0494,-0.044,-0.0413,-0.0352,-0.0309,-0.0224,-0.0186,-0.0144,-0.0092,-0.0036,0.0024,-0.0011,-0.0007,0.0032,0.015,0.0177,0.0193,0.0044,0.0046,0.0048,0.0168,0,-0.0676,-0.0673,-0.0636,-0.063,-0.0623,-0.0563,-0.0534,-0.048,-0.0426,-0.0373,-0.0288,-0.0234,-0.0192,-0.0163,-0.0098,-0.0007,0.0053,-0.001,0.0145,0.015,0.017,0.0207,0.0175,0.0282,0.018,0.0182,0.0183,0,-0.0699,-0.0696,-0.0698,-0.0668,-0.0658,-0.0644,-0.0588,-0.0553,-0.0461,-0.0419,-0.0342,-0.0276,-0.0177,-0.0153,0.0016,-0.003,0.0057,0.0127,0.0133,0.0188,0.02,0.0264,0.0307,0.0203,0.0202,0.02,0.0199,0,-0.0759,-0.0738,-0.0745,-0.0735,-0.069,-0.0679,-0.0651,-0.0573,-0.054,-0.0449,-0.0417,-0.0292,-0.0226,-0.0104,0.0047,0.0031,0.0229,0.0225,0.0336,0.0338,0.0359,0.0361,0.0349,0.0348,0.0348,0.0348,0.0347,0,-0.0802,-0.0806,-0.0779,-0.0786,-0.0796,-0.0739,-0.0726,-0.0678,-0.06,-0.0551,-0.0452,-0.038,-0.0211,-0.0076,0.0048,0.0235,0.0236,0.0351,0.0381,0.0339,0.0337,0.0306,0.0299,0.0352,0.0351,0.035,0.035,0,-0.0862,-0.0841,-0.0855,-0.0831,-0.0828,-0.0838,-0.0794,-0.0773,-0.0696,-0.0628,-0.0601,-0.0436,-0.0254,-0.008,0.0138,0.0241,0.0408,0.0473,0.0408,0.0429,0.0473,0.0462,0.0605,0.0607,0.0609,0.061,0.0612,0,-0.0887,-0.0903,-0.0911,-0.093,-0.0924,-0.0924,-0.0917,-0.084,-0.0802,-0.0647,-0.0614,-0.0426,-0.027,0.0047,0.0259,0.0486,0.0481,0.0582,0.0553,0.0489,0.0504,0.049,0.0478,0.0557,0.0557,0.0558,0.0559,0,-0.0942,-0.0949,-0.0965,-0.1011,-0.1024,-0.1025,-0.1,-0.0981,-0.0859,-0.0781,-0.062,-0.0482,-0.0163,0.0095,0.0381,0.0506,0.0538,0.0602,0.0578,0.049,0.0453,0.0464,0.0452,0.0564,0.0563,0.0563,0.0563,0.0562,-0.0982,-0.1016,-0.1043,-0.1081,-0.1102,-0.1101,-0.1089,-0.1031,-0.0957,-0.0798,-0.0646,-0.0421,-0.0155,0.0249,0.0452,0.0626,0.0627,0.0663,0.0658,0.0653,0.0619,0.0587,0.0716,0.0717,0.0717,0.0717,0.0717,0,-0.1021,-0.1054,-0.1103,-0.114,-0.1164,-0.1156,-0.1118,-0.1066,-0.0971,-0.0807,-0.0635,-0.0323,-0.0032,0.0229,0.0514,0.0693,0.0664,0.071,0.0637,0.0631,0.0627,0.0588,0.0679,0.0679,0.068,0.068,0,0,-0.1041,-0.1096,-0.1119,-0.1173,-0.1195,-0.1184,-0.1155,-0.1064,-0.0935,-0.0753,-0.0584,-0.0362,-0.0018,0.0171,0.04,0.0547,0.0535,0.0553,0.0568,0.0451,0.0443,0.0589,0.0524,0,0,0,0,0]}],[{"header":{"parameterUnit":"m.s-1","parameterCategory":2,"la1":30.2991,"la2":30.254,"lo1":-89.0895,"lo2":-89.0444,"dy":0.0017,"dx":0.0017,"nx":28,"ny":28,"refTime":"2024-10-21T09:00:00:Z","depth":"4","parameterNumber":2,"parameterNumberName":"U-component_of_CURRENTS"},"data":[0,0,0,0,0,0,0,0,0,0,0,0,0,0,0,0,0,0,0,0,0,0,0,0,0,0,0,0,0,0,0,0,0,0,0,0,0,0,0,0,0,0,0,0,0,0,0,0,0,0,0,0,0,0,0,0,0,0,-0.161,-0.1611,0,-0.1696,-0.1697,-0.1698,-0.1733,-0.1733,-0.1733,-0.1732,-0.179,-0.1791,-0.1793,0,0,0,0,0,0,0,0,0,0,0,0,0,-0.1469,-0.1471,-0.161,-0.1611,-0.1613,-0.1696,-0.1697,-0.1698,-0.1733,-0.1733,-0.1733,-0.1732,-0.1789,-0.1791,-0.1793,0,0,0,0,0,0,0,0,0,0,0,0,0,-0.1538,-0.1472,-0.161,-0.1641,-0.1645,-0.1695,-0.1697,-0.1698,-0.1733,-0.1733,-0.1733,-0.1732,-0.1789,-0.1791,-0.1793,-0.1809,0,0,-0.18,-0.1801,0,0,0,0,0,0,0,0,-0.1534,-0.1543,-0.1635,-0.1639,-0.1643,-0.1705,-0.1668,-0.1734,-0.1733,-0.1698,-0.1732,-0.1732,-0.176,-0.1765,-0.1779,-0.1812,-0.1814,-0.1801,-0.1802,-0.1803,-0.1804,0,0,0,0,0,0,0,-0.1529,-0.154,-0.1642,-0.1637,-0.1642,-0.1648,-0.1658,-0.1681,-0.1726,-0.1701,-0.1704,-0.1716,-0.1762,-0.1777,-0.178,-0.1815,-0.1801,-0.1803,-0.1804,-0.1805,-0.1921,-0.1923,0,0,0,0,0,0,-0.1523,-0.1535,-0.164,-0.1645,-0.1589,-0.1651,-0.1662,-0.1684,-0.1727,-0.1734,-0.1716,-0.1717,-0.1773,-0.1778,-0.1783,-0.1853,-0.1803,-0.1805,-0.1807,-0.192,-0.1922,-0.1923,0,0,0,0,0,0,-0.152,-0.1532,-0.1636,-0.1592,-0.1606,-0.1654,-0.1678,-0.1686,-0.173,-0.1739,-0.1745,-0.1755,-0.1773,-0.1779,-0.1826,-0.1854,-0.1806,-0.1808,-0.1918,-0.192,-0.1922,-0.1962,0,0,0,0,0,0,-0.1515,-0.153,-0.1556,-0.1593,-0.1609,-0.1677,-0.1679,-0.1687,-0.1736,-0.1739,-0.1774,-0.1778,-0.1773,-0.1822,-0.1828,-0.1856,-0.181,-0.1915,-0.1919,-0.1922,-0.1959,-0.1966,-0.1972,0,0,0,0,0,-0.151,-0.1542,-0.1557,-0.1571,-0.1639,-0.1679,-0.1688,-0.1719,-0.1738,-0.1759,-0.1787,-0.1778,-0.1846,-0.1826,-0.1832,-0.1861,-0.1914,-0.1918,-0.1921,-0.1956,-0.1964,-0.1972,0,0,0,0,0,0,-0.149,-0.155,-0.1567,-0.1615,-0.165,-0.1685,-0.1717,-0.174,-0.1781,-0.1794,-0.1802,-0.1807,-0.1855,-0.1859,-0.1837,-0.1905,-0.1878,-0.1884,-0.1902,-0.1911,-0.1917,-0.1918,-0.1812,0,0,0,0,0,-0.1499,-0.1546,-0.1587,-0.1629,-0.165,-0.1691,-0.1718,-0.1741,-0.1776,-0.1796,-0.182,-0.1849,-0.1872,-0.1893,-0.1911,-0.1955,-0.1936,-0.1978,-0.1985,-0.199,-0.1997,-0.1996,-0.2002,-0.1936,-0.1936,-0.1936,0,0,-0.1505,-0.1544,-0.1571,-0.1629,-0.1663,-0.17,-0.1708,-0.1759,-0.1794,-0.1795,-0.1858,-0.1873,-0.1889,-0.1931,-0.1953,-0.1941,-0.1997,-0.1995,-0.1999,-0.2003,-0.2,-0.2007,-0.2012,-0.1938,-0.1938,-0.1937,0,0,-0.1525,-0.1574,-0.1613,-0.1647,-0.1704,-0.1728,-0.175,-0.1802,-0.1831,-0.1885,-0.1894,-0.193,-0.1974,-0.1987,-0.1999,-0.2058,-0.2029,-0.2069,-0.2107,-0.2107,-0.2112,-0.2116,-0.2084,-0.2085,-0.2076,-0.2076,-0.2076,0,-0.1531,-0.1586,-0.1627,-0.1668,-0.1706,-0.1745,-0.1787,-0.1821,-0.1881,-0.191,-0.191,-0.1985,-0.1998,-0.2046,-0.2066,-0.2071,-0.2056,-0.2073,-0.2113,-0.2117,-0.212,-0.2087,-0.2088,-0.2078,-0.2078,-0.2078,-0.2078,0,-0.1571,-0.1622,-0.165,-0.1718,-0.1758,-0.1805,-0.1851,-0.1897,-0.1938,-0.1966,-0.2028,-0.2046,-0.2087,-0.21,-0.2103,-0.2146,-0.2121,-0.2115,-0.2087,-0.2129,-0.2092,-0.2092,-0.2082,-0.2081,-0.208,-0.208,0,0,-0.1562,-0.1661,-0.1673,-0.1713,-0.1794,-0.1829,-0.1893,-0.1956,-0.2001,-0.2048,-0.2098,-0.2145,-0.2157,-0.2173,-0.2181,-0.2189,-0.2196,-0.2171,-0.217,-0.2129,-0.2174,-0.2023,-0.2008,-0.2197,-0.2198,-0.2199,-0.2131,0,-0.1583,-0.1663,-0.1712,-0.179,-0.1833,-0.1894,-0.1948,-0.2009,-0.2056,-0.2107,-0.2137,-0.2182,-0.2184,-0.2206,-0.2218,-0.2204,-0.2201,-0.2213,-0.215,-0.2147,-0.1999,-0.2005,-0.2201,-0.2131,-0.213,-0.213,-0.213,0,-0.1597,-0.1655,-0.1735,-0.1831,-0.1858,-0.1911,-0.2008,-0.206,-0.2132,-0.2165,-0.2214,-0.2231,-0.2266,-0.2252,-0.2246,-0.2255,-0.2223,-0.2202,-0.2198,-0.2045,-0.1996,-0.2086,-0.2129,-0.2129,-0.213,-0.213,-0.213,0,-0.1557,-0.1667,-0.1735,-0.1772,-0.1882,-0.1936,-0.1999,-0.2083,-0.2126,-0.2203,-0.2227,-0.2272,-0.2283,-0.2272,-0.2233,-0.2246,-0.2195,-0.2201,-0.2031,-0.2019,-0.2158,-0.2154,-0.2186,-0.2186,-0.2187,-0.2187,-0.2187,0,-0.1545,-0.1602,-0.1729,-0.1765,-0.185,-0.1932,-0.2014,-0.2079,-0.2155,-0.2178,-0.2254,-0.2251,-0.229,-0.2264,-0.2235,-0.2113,-0.2192,-0.2027,-0.1992,-0.2174,-0.2174,-0.2156,-0.2153,-0.2184,-0.2185,-0.2185,-0.2186,0,-0.1482,-0.1566,-0.165,-0.1784,-0.183,-0.1892,-0.2017,-0.2052,-0.2143,-0.217,-0.2191,-0.2239,-0.2189,-0.2192,-0.215,-0.2082,-0.2004,-0.1942,-0.2114,-0.2092,-0.1829,-0.183,-0.1746,-0.174,-0.1735,-0.1731,-0.1727,0,-0.1453,-0.1491,-0.1648,-0.1689,-0.1756,-0.1858,-0.1907,-0.2029,-0.2049,-0.2123,-0.2102,-0.2107,-0.2109,-0.1916,-0.1953,-0.1867,-0.185,-0.1805,-0.1843,-0.181,-0.1785,-0.1794,-0.1801,-0.1719,-0.1718,-0.1717,-0.1716,0,-0.139,-0.146,-0.1525,-0.1613,-0.1683,-0.175,-0.1827,-0.183,-0.1926,-0.2033,-0.1941,-0.19,-0.1833,-0.1787,-0.1729,-0.1679,-0.1838,-0.1753,-0.1764,-0.1799,-0.1777,-0.1759,-0.1772,-0.1698,-0.1701,-0.1702,-0.1703,0,-0.1334,-0.1365,-0.1446,-0.1507,-0.1586,-0.1589,-0.1662,-0.1659,-0.1698,-0.178,-0.1736,-0.1737,-0.1788,-0.1685,-0.1632,-0.1569,-0.1554,-0.1517,-0.1541,-0.156,-0.1534,-0.148,-0.1267,0,0,0,0,0,-0.1263,-0.1274,-0.1323,-0.1368,-0.1433,-0.1469,-0.1568,-0.1632,-0.1731,-0.1611,-0.1667,-0.159,-0.1503,-0.1517,-0.1409,-0.1562,-0.1573,-0.1434,-0.1547,-0.1602,-0.1622,-0.161,0,0,0,0,0,0,-0.121,-0.1257,-0.1276,-0.1225,-0.1216,-0.1262,-0.1314,-0.1387,-0.1335,-0.144,-0.1394,-0.1481,-0.1419,-0.1511,-0.1363,-0.1369,-0.1407,-0.1457,-0.1453,-0.1591,-0.1609,-0.1625,-0.162,0,0,0,0,0]},{"header":{"parameterUnit":"m.s-1","parameterCategory":2,"la1":30.2991,"la2":30.254,"lo1":-89.0895,"lo2":-89.0444,"dy":0.0017,"dx":0.0017,"nx":28,"ny":28,"refTime":"2024-10-21T09:00:00:Z","depth":"4","parameterNumber":3,"parameterNumberName":"V-component_of_CURRENTS"},"data":[0,0,0,0,0,0,0,0,0,0,0,0,0,0,0,0,0,0,0,0,0,0,0,0,0,0,0,0,0,0,0,0,0,0,0,0,0,0,0,0,0,0,0,0,0,0,0,0,0,0,0,0,0,0,0,0,0,0,-0.0325,-0.0324,0,-0.0283,-0.0283,-0.0283,-0.0253,-0.0253,-0.0253,-0.0252,-0.018,-0.0179,-0.0177,0,0,0,0,0,0,0,0,0,0,0,0,0,-0.0359,-0.0359,-0.0325,-0.0324,-0.0323,-0.0283,-0.0283,-0.0282,-0.0253,-0.0253,-0.0253,-0.0252,-0.0181,-0.0179,-0.0177,0,0,0,0,0,0,0,0,0,0,0,0,0,-0.0335,-0.0359,-0.0325,-0.0303,-0.03,-0.0283,-0.0283,-0.0282,-0.0254,-0.0253,-0.0252,-0.0252,-0.0181,-0.0179,-0.0177,-0.0173,0,0,-0.017,-0.0169,0,0,0,0,0,0,0,0,-0.0336,-0.0334,-0.0307,-0.0304,-0.0302,-0.0272,-0.0268,-0.0244,-0.0254,-0.0273,-0.0252,-0.0252,-0.0207,-0.0203,-0.0199,-0.017,-0.0167,-0.0169,-0.0168,-0.0167,-0.0166,0,0,0,0,0,0,0,-0.0338,-0.0335,-0.031,-0.0306,-0.0303,-0.0288,-0.0285,-0.0264,-0.0245,-0.0271,-0.0269,-0.0262,-0.0206,-0.0201,-0.0197,-0.0166,-0.0169,-0.0167,-0.0166,-0.0165,-0.0111,-0.0111,0,0,0,0,0,0,-0.0342,-0.0337,-0.0311,-0.0308,-0.0316,-0.0288,-0.0284,-0.0283,-0.0245,-0.0239,-0.0262,-0.0261,-0.0206,-0.02,-0.0194,-0.0167,-0.0167,-0.0165,-0.0163,-0.0111,-0.0111,-0.0111,0,0,0,0,0,0,-0.0343,-0.034,-0.0313,-0.032,-0.0315,-0.0288,-0.0287,-0.0282,-0.0278,-0.0238,-0.0232,-0.0263,-0.0205,-0.0198,-0.0175,-0.0164,-0.0164,-0.0162,-0.0111,-0.0111,-0.0111,-0.0125,0,0,0,0,0,0,-0.0344,-0.0341,-0.0347,-0.0321,-0.0315,-0.0307,-0.0287,-0.0282,-0.0274,-0.0271,-0.0236,-0.0229,-0.0204,-0.0179,-0.0173,-0.0161,-0.016,-0.0111,-0.0111,-0.0111,-0.0124,-0.0125,-0.0126,0,0,0,0,0,-0.0346,-0.0354,-0.0348,-0.0345,-0.0323,-0.0307,-0.0303,-0.0282,-0.0275,-0.0277,-0.025,-0.023,-0.0174,-0.0177,-0.017,-0.0157,-0.0111,-0.0111,-0.0111,-0.0124,-0.0125,-0.0126,0,0,0,0,0,0,-0.0374,-0.0351,-0.0344,-0.0346,-0.033,-0.0301,-0.0302,-0.0288,-0.027,-0.0269,-0.0232,-0.0223,-0.0197,-0.0181,-0.0185,-0.0142,-0.0138,-0.0137,-0.0151,-0.0152,-0.0153,-0.0146,-0.0158,0,0,0,0,0,-0.0384,-0.0386,-0.0359,-0.0364,-0.0356,-0.0332,-0.0325,-0.0311,-0.0288,-0.028,-0.0254,-0.0225,-0.0193,-0.0176,-0.0152,-0.0132,-0.0099,-0.0119,-0.012,-0.012,-0.0111,-0.0049,-0.0043,-0.011,-0.011,-0.011,0,0,-0.0399,-0.0386,-0.0388,-0.037,-0.0358,-0.0347,-0.0327,-0.032,-0.0307,-0.0275,-0.0256,-0.0229,-0.0189,-0.0162,-0.0149,-0.0146,-0.0088,-0.012,-0.0121,-0.0111,-0.0048,-0.0042,-0.0036,-0.011,-0.011,-0.011,0,0,-0.0421,-0.0416,-0.042,-0.0407,-0.0387,-0.0368,-0.0368,-0.0341,-0.0326,-0.0308,-0.0273,-0.0237,-0.0208,-0.0162,-0.0138,-0.013,-0.0096,-0.0131,-0.0124,-0.0065,-0.0058,-0.0052,-0.0017,-0.0007,-0.0128,-0.0129,-0.0129,0,-0.044,-0.0437,-0.042,-0.0415,-0.0405,-0.0379,-0.0375,-0.0355,-0.0325,-0.0305,-0.0307,-0.0232,-0.0201,-0.0138,-0.0134,-0.0128,-0.0101,-0.0123,-0.0064,-0.0058,-0.0051,-0.0016,-0.0005,-0.0129,-0.0129,-0.0129,-0.0129,0,-0.0454,-0.0455,-0.0457,-0.0439,-0.0428,-0.0425,-0.0389,-0.0374,-0.0356,-0.0329,-0.0279,-0.0233,-0.0184,-0.0168,-0.0148,-0.0083,-0.0083,-0.0074,-0.006,-0.0045,-0.0009,0.0002,-0.013,-0.013,-0.013,-0.013,0,0,-0.0488,-0.047,-0.0472,-0.0469,-0.0441,-0.0434,-0.0408,-0.037,-0.0349,-0.0314,-0.0276,-0.0211,-0.0184,-0.0154,-0.0116,-0.0062,0.0003,-0.0053,-0.0049,-0.0014,0.0118,0.0087,0.0097,0.0022,0.0024,0.0025,0.0119,0,-0.0505,-0.0508,-0.0487,-0.0489,-0.0486,-0.045,-0.0429,-0.0392,-0.0357,-0.0317,-0.0248,-0.0206,-0.0179,-0.0157,-0.0094,-0.0024,0.0035,-0.0024,0.0096,0.0099,0.0074,0.011,0.0033,0.0128,0.013,0.0132,0.0134,0,-0.052,-0.0521,-0.053,-0.0511,-0.0506,-0.0502,-0.0461,-0.0436,-0.0365,-0.0337,-0.0272,-0.0223,-0.0133,-0.0121,0.0025,-0.0018,0.0052,0.0108,0.0113,0.0101,0.0091,0.0113,0.0155,0.0153,0.0152,0.015,0.0149,0,-0.0555,-0.0548,-0.0559,-0.0555,-0.0529,-0.0525,-0.0507,-0.045,-0.0425,-0.0349,-0.0328,-0.0216,-0.0167,-0.0057,0.0053,0.0042,0.0206,0.0206,0.025,0.0248,0.0253,0.0246,0.0323,0.0323,0.0323,0.0323,0.0322,0,-0.0575,-0.0584,-0.0583,-0.0591,-0.0605,-0.0568,-0.0563,-0.0526,-0.0466,-0.0432,-0.0348,-0.0294,-0.0147,-0.0041,0.0059,0.0185,0.0215,0.0265,0.028,0.024,0.0231,0.026,0.0252,0.0326,0.0325,0.0325,0.0324,0,-0.0607,-0.0605,-0.0625,-0.0622,-0.0627,-0.064,-0.0621,-0.0605,-0.0547,-0.0499,-0.0477,-0.0344,-0.0206,-0.0064,0.0119,0.0183,0.031,0.0351,0.0288,0.0296,0.0309,0.0298,0.0409,0.0409,0.0409,0.0409,0.0409,0,-0.0618,-0.0635,-0.0669,-0.0695,-0.0701,-0.0713,-0.0717,-0.0662,-0.0635,-0.0524,-0.0499,-0.0358,-0.026,-0.003,0.0116,0.0307,0.0331,0.0385,0.0364,0.0319,0.0323,0.0313,0.0303,0.0409,0.0409,0.0409,0.0409,0,-0.0647,-0.067,-0.0692,-0.0752,-0.078,-0.0792,-0.0787,-0.077,-0.0683,-0.0638,-0.0503,-0.0366,-0.0211,-0.003,0.0116,0.0254,0.0341,0.0385,0.0386,0.0366,0.032,0.0322,0.0312,0.0408,0.0408,0.0409,0.0409,0,-0.0675,-0.0708,-0.0752,-0.0795,-0.084,-0.0849,-0.0839,-0.0782,-0.0738,-0.06,-0.0555,-0.0372,-0.0252,-0.0056,0.0082,0.0208,0.0236,0.0262,0.0269,0.0271,0.0197,0.0116,0.017,0,0,0,0,0,-0.0695,-0.0733,-0.0785,-0.083,-0.0872,-0.0887,-0.087,-0.0839,-0.0758,-0.0672,-0.0604,-0.0451,-0.022,-0.0113,0.0009,0.0063,0.0239,0.0206,0.0267,0.0407,0.0408,0.0341,0,0,0,0,0,0,-0.0709,-0.0768,-0.0789,-0.0844,-0.0876,-0.0906,-0.0894,-0.0839,-0.0773,-0.0679,-0.0553,-0.0452,-0.023,-0.0296,-0.0,0.0042,0.009,0.0326,0.0328,0.0407,0.0407,0.0408,0.0339,0,0,0,0,0]}]]